Regional Weather Roundup
Issued by NWS

Home | Current Version | Previous Version | Graphics & Text | Print | Product List | Glossary On
Versions: 1 2 3 4 5 6 7 8 9 10 11 12 13 14 15 16 17 18 19 20 21 22 23 24 25 26 27 28 29 30 31 32 33 34 35 36 37 38 39 40 41 42 43 44 45 46 47 48 49 50
000
ASUS43 KIND 232359
RWRIN

WEATHER ROUNDUP FOR INDIANA
NATIONAL WEATHER SERVICE INDIANAPOLIS IN
700 PM EST SUN NOV 23 2014

NOTE: "FAIR" INDICATES FEW OR NO CLOUDS BELOW 12,000 FEET WITH NO
SIGNIFICANT WEATHER AND/OR OBSTRUCTIONS TO VISIBILITY.

* - STATION DOES NOT REPORT WEATHER SUCH AS PRECIPITATION OR FOG.

+ - STATION NOT QUALITY CONTROLLED BY THE NATIONAL WEATHER SERVICE.
    USE DATA WITH CAUTION...ESPECIALLY DEWPOINT AND RELATIVE
    HUMIDITY OBSERVATIONS.

INZ001>003-010>013-019-020-240100-
NORTHWEST INDIANA

CITY           SKY/WX    TMP DP  RH WIND       PRES   REMARKS
VALPARAISO     NOT AVBL

$$

LMZ046-743>745-240100-
SOUTHERN LAKE MICHIGAN

STATION/POSITION TIME  TEMP WIND        PRES
                       AIR  DIR/SP/G
                 (UTC) (F)  (DEG/KT/KT) (MB)
MICHIGAN CITY    2300   51  110/ 10/ 14   N/A

$$

INZ004-005-014>016-021>024-240100-
NORTH CENTRAL INDIANA

CITY           SKY/WX    TMP DP  RH WIND       PRES   REMARKS
GOSHEN         RAIN      52  50  93 SE13      29.43F FOG
6HR MIN TEMP:  51; 6HR MAX TEMP:  56; 6HR PCP:  0.83;

PERU/GRISSOM   LGT RAIN  52  52 100 SE10      29.40F FOG
SOUTH BEND     RAIN      52  50  93 SE12      29.44F FOG
6HR MIN TEMP:  51; 6HR MAX TEMP:  55; 6HR PCP:  0.55;


$$

INZ006>009-017-018-025>027-240100-
NORTHEAST INDIANA

CITY           SKY/WX    TMP DP  RH WIND       PRES   REMARKS
ANGOLA *+      CLOUDY    50  39  66 SE9       29.48F
FORT WAYNE     LGT RAIN  51  49  92 E14       29.45F FOG
6HR MIN TEMP:  51; 6HR MAX TEMP:  56; 6HR PCP:  0.58;


$$

INZ028-029-035-036-043>045-051>053-240100-
WEST CENTRAL INDIANA

CITY           SKY/WX    TMP DP  RH WIND       PRES   REMARKS
GREENCASTLE +  LGT RAIN  50  50 100 SE8       29.37F
LAFAYETTE      LGT RAIN  51  50  96 SE8       29.37F
6HR MIN TEMP:  50; 6HR MAX TEMP:  53; 6HR PCP:  0.39;

TERRE HAUTE    RAIN      53  51  93 SE9       29.34F FOG
6HR MIN TEMP:  52; 6HR MAX TEMP:  53;


$$

INZ030>032-037>040-046>048-054>057-064-065-240100-
CENTRAL INDIANA

CITY           SKY/WX    TMP DP  RH WIND       PRES   REMARKS
COLUMBUS       LGT RAIN  52  52 100 SE9       29.40F
INDIANAPOLIS   RAIN      51  50  96 SE13      29.38F FOG
6HR MIN TEMP:  50; 6HR MAX TEMP:  52; 6HR PCP:  0.78;

-EAGLE CREEK   RAIN      52  52 100 SE9       29.39F FOG
6HR MIN TEMP:  51; 6HR MAX TEMP:  52; 6HR PCP:  0.72;

KOKOMO *+      CLOUDY    52  48  87 SE15      29.40F
MT COMFORT *+  CLOUDY    54 N/A N/A SE13      29.41F
SHELBYVILLE    HVY RAIN  54  52  93 SE10      29.40F FOG
6HR MIN TEMP:  54; 6HR MAX TEMP:  57; 6HR PCP:  0.82;


$$

INZ033-034-041-042-049-050-058-059-240100-
EAST CENTRAL INDIANA

CITY           SKY/WX    TMP DP  RH WIND       PRES   REMARKS
MUNCIE         RAIN      53  50  89 SE13G22   29.42F FOG
6HR MIN TEMP:  52; 6HR MAX TEMP:  58; 6HR PCP:  0.62;


$$

INZ060-061-067>069-081>083-085>088-240100-
SOUTHWEST INDIANA

CITY           SKY/WX    TMP DP  RH WIND       PRES   REMARKS
EVANSVILLE     RAIN      57  54  89 SE10      29.30F FOG
6HR MIN TEMP:  53; 6HR MAX TEMP:  57; 6HR PCP:  0.93;

HUNTINGBURG *+ CLOUDY    54  52  94 SE18G24   29.33F
6HR MIN TEMP:  54; 6HR MAX TEMP:  55; 6HR PCP:  0.53;


$$

INZ062-063-066-070>080-084-089>092-240100-
SOUTH CENTRAL AND SOUTHEAST INDIANA

CITY           SKY/WX    TMP DP  RH WIND       PRES   REMARKS
BLOOMINGTON    HVY RAIN  52  51  97 SE12      29.36F FOG
6HR MIN TEMP:  52; 6HR MAX TEMP:  53; 6HR PCP:  0.65;


$$



USA.gov is the U.S. government's official web portal to all federal, state and local government web resources and services.